Tracking 27112 objects as of 27-Mar-2023
HD Live streaming from Space Station
objects crossing your sky now

OPS 0203 (DMSP 5A F2)

Track OPS 0203 (DMSP 5A F2) now!
10-day predictions
OPS 0203 (DMSP 5A F2) is classified as:


NORAD ID: 4512
Int'l Code: 1970-070A
Perigee: 736.6 km
Apogee: 827.5 km
Inclination: 98.8 °
Period: 100.3 minutes
Semi major axis: 7153 km
RCS: 0.9702 m2 (medium)
Launch date: September 3, 1970
Source: United States (US)
Launch site: AIR FORCE WESTERN TEST RANGE (AFWTR)
Your satellite tracking list
Your tracking list is empty




NASA's NSSDC Master Catalog

Two Line Element Set (TLE):
1  4512U 70070A   23086.19758430  .00000675  00000-0  24776-3 0  9999
2  4512  98.8446 349.0795 0063480 315.8145  43.7979 14.35045241743011
Source of the keplerian elements: AFSPC